UAL412 KDEN-KOKC

Flight info

Callsign UAL412
Flight time 1h 11m
Altitude 39000
Route EPKEE7 DUUZE ROLLS CAMET3
Aircraft B737/M-SDE2E3FGHIRWXY/LB1

Departure

Time 2026-04-10 21:42
Airport Denver International Airport (KDEN)

Arrival

Time 2026-04-10 22:53
Airport OKC Will Rogers World Airport (KOKC)
Time Latitude Longitude Altitude Speed Heading
2026-04-10 21:26 39.85340 -104.67994 5380 ft 0 kts
2026-04-10 21:32 39.85330 -104.67994 5382 ft 3 kts
2026-04-10 21:32 39.85310 -104.67998 5381 ft 3 kts 17°
2026-04-10 21:32 39.85293 -104.68008 5382 ft 3 kts 41°
2026-04-10 21:33 39.85282 -104.68025 5382 ft 2 kts 83°
2026-04-10 21:33 39.85282 -104.68031 5382 ft 0 kts 90°
2026-04-10 21:35 39.85282 -104.68030 5382 ft 1 kts 90°
2026-04-10 21:35 39.85282 -104.68012 5382 ft 6 kts 90°
2026-04-10 21:35 39.85281 -104.67896 5382 ft 19 kts 90°
2026-04-10 21:35 39.85281 -104.67693 5382 ft 24 kts 90°
2026-04-10 21:36 39.85280 -104.67457 5382 ft 27 kts 90°
2026-04-10 21:36 39.85277 -104.67218 5382 ft 26 kts 91°
2026-04-10 21:36 39.85275 -104.66997 5381 ft 23 kts 90°
2026-04-10 21:36 39.85273 -104.66790 5382 ft 22 kts 91°
2026-04-10 21:37 39.85274 -104.66590 5386 ft 22 kts 83°
2026-04-10 21:37 39.85294 -104.66400 5391 ft 21 kts 92°
2026-04-10 21:37 39.85338 -104.66241 5393 ft 21 kts 11°
2026-04-10 21:37 39.85479 -104.66239 5391 ft 20 kts
2026-04-10 21:38 39.85618 -104.66237 5391 ft 21 kts
2026-04-10 21:38 39.85769 -104.66235 5387 ft 23 kts
2026-04-10 21:38 39.85876 -104.66234 5387 ft 23 kts
2026-04-10 21:38 39.86034 -104.66233 5386 ft 22 kts
2026-04-10 21:39 39.86243 -104.66228 5381 ft 23 kts
2026-04-10 21:39 39.86404 -104.66226 5381 ft 25 kts
2026-04-10 21:39 39.86598 -104.66224 5376 ft 31 kts
2026-04-10 21:39 39.86825 -104.66221 5369 ft 33 kts
2026-04-10 21:40 39.86979 -104.66221 5368 ft 32 kts
2026-04-10 21:40 39.87201 -104.66216 5364 ft 31 kts
2026-04-10 21:40 39.87414 -104.66214 5359 ft 30 kts
2026-04-10 21:40 39.87608 -104.66214 5361 ft 24 kts 360°
2026-04-10 21:41 39.87726 -104.66214 5361 ft 1 kts 359°
2026-04-10 21:41 39.87754 -104.66195 5360 ft 13 kts 60°
2026-04-10 21:41 39.87755 -104.65959 5356 ft 57 kts 90°
2026-04-10 21:41 39.87751 -104.65048 5347 ft 141 kts 90°
2026-04-10 21:42 39.87740 -104.63494 5552 ft 193 kts 89°
2026-04-10 21:42 39.87734 -104.61626 6285 ft 217 kts 88°
2026-04-10 21:42 39.87638 -104.59583 6999 ft 236 kts 103°
2026-04-10 21:42 39.87044 -104.57463 7443 ft 267 kts 112°
2026-04-10 21:43 39.86262 -104.55126 8013 ft 291 kts 114°
2026-04-10 21:43 39.85442 -104.52707 9218 ft 292 kts 115°
2026-04-10 21:43 39.84619 -104.50255 9813 ft 294 kts 116°
2026-04-10 21:43 39.83826 -104.47862 10028 ft 288 kts 116°
2026-04-10 21:44 39.83032 -104.45463 10021 ft 289 kts 116°
2026-04-10 21:44 39.82242 -104.43067 10018 ft 287 kts 116°
2026-04-10 21:44 39.81469 -104.40721 10022 ft 285 kts 116°
2026-04-10 21:44 39.80681 -104.38358 10026 ft 285 kts 116°
2026-04-10 21:45 39.79837 -104.35924 10241 ft 307 kts 116°
2026-04-10 21:45 39.78937 -104.33342 11103 ft 318 kts 117°
2026-04-10 21:45 39.78013 -104.30694 12027 ft 327 kts 117°
2026-04-10 21:45 39.77059 -104.27961 12881 ft 337 kts 118°
2026-04-10 21:46 39.76084 -104.25157 13792 ft 343 kts 117°
2026-04-10 21:46 39.75094 -104.22314 14770 ft 348 kts 117°
2026-04-10 21:46 39.74089 -104.19429 15712 ft 353 kts 117°
2026-04-10 21:46 39.73066 -104.16495 16603 ft 359 kts 117°
2026-04-10 21:47 39.72023 -104.13515 17462 ft 365 kts 117°
2026-04-10 21:47 39.70955 -104.10494 18322 ft 370 kts 117°
2026-04-10 21:47 39.69871 -104.07436 19137 ft 376 kts 117°
2026-04-10 21:47 39.68763 -104.04314 19900 ft 384 kts 117°
2026-04-10 21:48 39.67639 -104.01145 20677 ft 390 kts 117°
2026-04-10 21:48 39.66498 -103.97927 21428 ft 395 kts 117°
2026-04-10 21:48 39.65350 -103.94702 22173 ft 399 kts 118°
2026-04-10 21:48 39.64084 -103.91466 22836 ft 406 kts 121°
2026-04-10 21:49 39.62719 -103.88213 23502 ft 412 kts 122°
2026-04-10 21:49 39.61334 -103.84931 24221 ft 417 kts 122°
2026-04-10 21:49 39.59949 -103.81594 24883 ft 422 kts 121°
2026-04-10 21:49 39.58625 -103.78170 25534 ft 428 kts 117°
2026-04-10 21:50 39.57514 -103.74552 26202 ft 434 kts 113°
2026-04-10 21:50 39.56506 -103.70846 26833 ft 438 kts 112°
2026-04-10 21:50 39.55518 -103.67099 27430 ft 442 kts 112°
2026-04-10 21:50 39.54513 -103.63316 27998 ft 446 kts 112°
2026-04-10 21:51 39.53478 -103.59502 28561 ft 450 kts 113°
2026-04-10 21:51 39.52418 -103.55681 29137 ft 452 kts 113°
2026-04-10 21:51 39.51334 -103.51839 29660 ft 456 kts 114°
2026-04-10 21:51 39.50236 -103.47978 30157 ft 459 kts 114°
2026-04-10 21:52 39.49125 -103.44079 30635 ft 463 kts 114°
2026-04-10 21:52 39.48018 -103.40207 31060 ft 467 kts 114°
2026-04-10 21:52 39.46883 -103.36241 31435 ft 472 kts 114°
2026-04-10 21:52 39.45735 -103.32238 31804 ft 476 kts 114°
2026-04-10 21:53 39.44579 -103.28208 32177 ft 480 kts 114°
2026-04-10 21:53 39.43413 -103.24146 32546 ft 483 kts 114°
2026-04-10 21:53 39.42242 -103.20071 32939 ft 484 kts 114°
2026-04-10 21:53 39.41067 -103.15990 33396 ft 484 kts 114°
2026-04-10 21:54 39.39893 -103.11913 33861 ft 484 kts 114°
2026-04-10 21:54 39.38717 -103.07838 34277 ft 484 kts 114°
2026-04-10 21:54 39.37539 -103.03762 34660 ft 485 kts 114°
2026-04-10 21:54 39.36357 -102.99680 35052 ft 485 kts 114°
2026-04-10 21:55 39.35174 -102.95604 35467 ft 484 kts 115°
2026-04-10 21:55 39.33874 -102.91614 35884 ft 480 kts 120°
2026-04-10 21:55 39.32397 -102.87756 36264 ft 478 kts 122°
2026-04-10 21:55 39.30843 -102.83951 36545 ft 479 kts 123°
2026-04-10 21:56 39.29269 -102.80139 36812 ft 481 kts 123°
2026-04-10 21:56 39.27731 -102.76372 37130 ft 481 kts 122°
2026-04-10 21:56 39.26193 -102.72537 37481 ft 480 kts 122°
2026-04-10 21:56 39.24671 -102.68695 37789 ft 481 kts 122°
2026-04-10 21:57 39.23157 -102.64851 38053 ft 482 kts 121°
2026-04-10 21:57 39.21637 -102.60989 38338 ft 482 kts 121°
2026-04-10 21:57 39.20118 -102.57127 38663 ft 482 kts 121°
2026-04-10 21:57 39.18601 -102.53285 38994 ft 480 kts 122°
2026-04-10 21:58 39.17083 -102.49451 39258 ft 481 kts 121°
2026-04-10 21:58 39.15557 -102.45603 39242 ft 483 kts 121°
2026-04-10 21:58 39.12500 -102.37917 39249 ft 480 kts 122°
2026-04-10 21:59 39.09458 -102.30330 39257 ft 476 kts 122°
2026-04-10 21:59 39.06415 -102.22777 39263 ft 474 kts 122°
2026-04-10 22:00 39.03378 -102.15247 39260 ft 474 kts 121°
2026-04-10 22:00 39.00341 -102.07724 39255 ft 473 kts 122°
2026-04-10 22:01 38.97306 -102.00226 39263 ft 472 kts 122°
2026-04-10 22:01 38.94291 -101.92795 39252 ft 472 kts 121°
2026-04-10 22:02 38.91253 -101.85321 39256 ft 471 kts 121°
2026-04-10 22:02 38.88215 -101.77870 39254 ft 471 kts 121°
2026-04-10 22:03 38.84932 -101.70647 39228 ft 462 kts 137°
2026-04-10 22:03 38.82557 -101.67982 39259 ft 448 kts 154°
2026-04-10 22:03 38.79897 -101.65949 39271 ft 444 kts 156°
2026-04-10 22:04 38.74503 -101.62038 39256 ft 445 kts 157°
2026-04-10 22:04 38.69148 -101.58144 39249 ft 446 kts 156°
2026-04-10 22:05 38.63759 -101.54170 39250 ft 447 kts 156°
2026-04-10 22:05 38.58370 -101.50172 39250 ft 448 kts 156°
2026-04-10 22:06 38.52971 -101.46166 39249 ft 449 kts 156°
2026-04-10 22:06 38.47568 -101.42166 39246 ft 449 kts 156°
2026-04-10 22:07 38.42159 -101.38167 39248 ft 449 kts 156°
2026-04-10 22:08 38.34034 -101.32179 39228 ft 450 kts 156°
2026-04-10 22:08 38.28609 -101.28186 39237 ft 450 kts 156°
2026-04-10 22:09 38.23193 -101.24207 39238 ft 449 kts 156°
2026-04-10 22:09 38.17811 -101.20261 39245 ft 449 kts 156°
2026-04-10 22:10 38.12401 -101.16304 39251 ft 448 kts 156°
2026-04-10 22:10 38.06999 -101.12358 39259 ft 448 kts 156°
2026-04-10 22:11 38.01593 -101.08417 39257 ft 448 kts 156°
2026-04-10 22:11 37.96170 -101.04471 39274 ft 454 kts 155°
2026-04-10 22:12 37.90603 -101.00432 39259 ft 468 kts 155°
2026-04-10 22:12 37.84888 -100.96287 39248 ft 477 kts 155°
2026-04-10 22:13 37.79123 -100.92106 39235 ft 478 kts 155°
2026-04-10 22:13 37.73351 -100.87929 39221 ft 477 kts 155°
2026-04-10 22:14 37.67619 -100.83793 39224 ft 477 kts 155°
2026-04-10 22:14 37.61857 -100.79643 39230 ft 476 kts 155°
2026-04-10 22:15 37.56104 -100.75507 39221 ft 476 kts 155°
2026-04-10 22:15 37.50350 -100.71378 39221 ft 475 kts 155°
2026-04-10 22:16 37.44597 -100.67257 39219 ft 475 kts 155°
2026-04-10 22:16 37.38843 -100.63142 39221 ft 475 kts 155°
2026-04-10 22:17 37.33140 -100.59073 39222 ft 474 kts 155°
2026-04-10 22:17 37.27400 -100.54982 39221 ft 474 kts 155°
2026-04-10 22:18 37.21654 -100.50894 39225 ft 475 kts 155°
2026-04-10 22:18 37.15908 -100.46813 39218 ft 474 kts 155°
2026-04-10 22:19 37.10156 -100.42736 39222 ft 474 kts 155°
2026-04-10 22:19 37.04400 -100.38664 39219 ft 475 kts 155°
2026-04-10 22:20 36.98648 -100.34601 39215 ft 475 kts 155°
2026-04-10 22:20 36.92880 -100.30537 39195 ft 475 kts 155°
2026-04-10 22:21 36.87114 -100.26479 39193 ft 476 kts 154°
2026-04-10 22:21 36.81340 -100.22421 39183 ft 476 kts 154°
2026-04-10 22:22 36.75572 -100.18373 39172 ft 476 kts 154°
2026-04-10 22:22 36.69800 -100.14331 39176 ft 476 kts 154°
2026-04-10 22:23 36.64058 -100.10319 39170 ft 476 kts 154°
2026-04-10 22:23 36.58277 -100.06287 39165 ft 476 kts 154°
2026-04-10 22:24 36.52487 -100.02256 39161 ft 477 kts 154°
2026-04-10 22:24 36.46689 -99.98224 39156 ft 477 kts 153°
2026-04-10 22:25 36.40891 -99.94200 39153 ft 477 kts 153°
2026-04-10 22:25 36.35089 -99.90182 39157 ft 477 kts 153°
2026-04-10 22:26 36.29291 -99.86168 39151 ft 477 kts 153°
2026-04-10 22:26 36.23464 -99.82143 38594 ft 483 kts 153°
2026-04-10 22:26 36.20557 -99.80138 38605 ft 472 kts 153°
2026-04-10 22:27 36.18662 -99.78830 38623 ft 470 kts 153°
2026-04-10 22:27 36.15834 -99.76880 38787 ft 462 kts 153°
2026-04-10 22:27 36.13042 -99.74957 39143 ft 456 kts 153°
2026-04-10 22:27 36.09413 -99.72462 39117 ft 444 kts 153°
2026-04-10 22:28 36.06736 -99.70622 39150 ft 438 kts 154°
2026-04-10 22:28 36.02280 -99.67570 39158 ft 437 kts 154°
2026-04-10 22:28 35.99636 -99.65761 38967 ft 431 kts 154°
2026-04-10 22:29 35.97023 -99.63971 38315 ft 429 kts 153°
2026-04-10 22:29 35.94398 -99.62174 37406 ft 434 kts 153°
2026-04-10 22:29 35.91746 -99.60361 36433 ft 438 kts 153°
2026-04-10 22:29 35.89064 -99.58528 35484 ft 442 kts 153°
2026-04-10 22:30 35.86382 -99.56696 34703 ft 440 kts 152°
2026-04-10 22:30 35.83718 -99.54876 34066 ft 434 kts 152°
2026-04-10 22:30 35.81130 -99.53110 33475 ft 428 kts 152°
2026-04-10 22:30 35.78537 -99.51344 32839 ft 423 kts 152°
2026-04-10 22:31 35.75988 -99.49566 32174 ft 420 kts 147°
2026-04-10 22:31 35.73852 -99.47138 31459 ft 419 kts 126°
2026-04-10 22:31 35.72446 -99.44028 30843 ft 414 kts 110°
2026-04-10 22:31 35.71807 -99.40612 30169 ft 408 kts 94°
2026-04-10 22:32 35.71577 -99.37143 29472 ft 404 kts 92°
2026-04-10 22:32 35.71406 -99.33711 28729 ft 400 kts 92°
2026-04-10 22:32 35.71247 -99.30307 27999 ft 397 kts 92°
2026-04-10 22:32 35.71083 -99.26944 27331 ft 391 kts 92°
2026-04-10 22:33 35.70911 -99.23625 26650 ft 386 kts 93°
2026-04-10 22:33 35.70731 -99.20360 26133 ft 380 kts 93°
2026-04-10 22:33 35.70545 -99.17117 25662 ft 379 kts 94°
2026-04-10 22:33 35.70355 -99.13899 25206 ft 377 kts 94°
2026-04-10 22:34 35.70164 -99.10693 24758 ft 374 kts 94°
2026-04-10 22:34 35.69972 -99.07510 24299 ft 372 kts 94°
2026-04-10 22:34 35.69781 -99.04350 23856 ft 369 kts 94°
2026-04-10 22:34 35.69590 -99.01214 23378 ft 368 kts 94°
2026-04-10 22:35 35.69398 -98.98068 22861 ft 367 kts 94°
2026-04-10 22:35 35.69208 -98.94983 22408 ft 365 kts 94°
2026-04-10 22:35 35.69017 -98.91876 21941 ft 363 kts 94°
2026-04-10 22:35 35.68826 -98.88789 21483 ft 360 kts 94°
2026-04-10 22:36 35.68636 -98.85727 21036 ft 358 kts 94°
2026-04-10 22:36 35.68448 -98.82690 20590 ft 355 kts 94°
2026-04-10 22:36 35.68259 -98.79673 20146 ft 352 kts 94°
2026-04-10 22:36 35.68072 -98.76683 19706 ft 350 kts 94°
2026-04-10 22:37 35.67884 -98.73711 19269 ft 347 kts 95°
2026-04-10 22:37 35.67697 -98.70762 18828 ft 345 kts 95°
2026-04-10 22:37 35.67512 -98.67835 18387 ft 342 kts 95°
2026-04-10 22:37 35.67326 -98.64924 17948 ft 340 kts 95°
2026-04-10 22:38 35.67141 -98.62036 17487 ft 338 kts 95°
2026-04-10 22:38 35.66955 -98.59145 16949 ft 339 kts 95°
2026-04-10 22:38 35.66770 -98.56268 16503 ft 336 kts 95°
2026-04-10 22:38 35.66584 -98.53401 16055 ft 334 kts 95°
2026-04-10 22:39 35.66400 -98.50564 15623 ft 332 kts 95°
2026-04-10 22:39 35.66216 -98.47740 15176 ft 330 kts 95°
2026-04-10 22:39 35.66034 -98.44941 14753 ft 327 kts 95°
2026-04-10 22:39 35.65852 -98.42170 14325 ft 324 kts 96°
2026-04-10 22:40 35.65517 -98.39444 13899 ft 321 kts 103°
2026-04-10 22:40 35.65024 -98.36785 13484 ft 317 kts 105°
2026-04-10 22:40 35.64507 -98.34161 13069 ft 314 kts 105°
2026-04-10 22:40 35.64003 -98.31557 12651 ft 312 kts 105°
2026-04-10 22:41 35.63516 -98.28970 12243 ft 309 kts 104°
2026-04-10 22:41 35.63051 -98.26436 11829 ft 307 kts 104°
2026-04-10 22:41 35.62589 -98.23888 11416 ft 304 kts 104°
2026-04-10 22:41 35.62133 -98.21363 11059 ft 300 kts 104°
2026-04-10 22:42 35.61679 -98.18853 11029 ft 301 kts 104°
2026-04-10 22:42 35.61222 -98.16365 10990 ft 294 kts 104°
2026-04-10 22:42 35.60782 -98.13979 10979 ft 278 kts 105°
2026-04-10 22:42 35.60365 -98.11726 10979 ft 263 kts 105°
2026-04-10 22:43 35.59971 -98.09599 10982 ft 248 kts 105°
2026-04-10 22:43 35.59600 -98.07595 10981 ft 233 kts 105°
2026-04-10 22:43 35.59245 -98.05684 10986 ft 229 kts 105°
2026-04-10 22:43 35.58877 -98.03714 11026 ft 245 kts 105°
2026-04-10 22:44 35.58597 -98.01604 11007 ft 254 kts 94°
2026-04-10 22:44 35.58551 -97.99465 10951 ft 252 kts 93°
2026-04-10 22:44 35.58509 -97.97325 10654 ft 250 kts 93°
2026-04-10 22:44 35.58468 -97.95168 10230 ft 250 kts 93°
2026-04-10 22:45 35.58429 -97.93066 9845 ft 249 kts 94°
2026-04-10 22:45 35.58390 -97.90944 9448 ft 248 kts 93°
2026-04-10 22:45 35.58354 -97.88830 9058 ft 247 kts 93°
2026-04-10 22:45 35.58321 -97.86736 8700 ft 244 kts 93°
2026-04-10 22:46 35.58290 -97.84660 8332 ft 242 kts 93°
2026-04-10 22:46 35.58261 -97.82591 7915 ft 242 kts 93°
2026-04-10 22:46 35.58235 -97.80526 7510 ft 241 kts 93°
2026-04-10 22:46 35.58213 -97.78481 7157 ft 239 kts 93°
2026-04-10 22:47 35.58193 -97.76450 6800 ft 236 kts 93°
2026-04-10 22:47 35.58175 -97.74434 6398 ft 236 kts 93°
2026-04-10 22:47 35.58162 -97.72421 6006 ft 235 kts 93°
2026-04-10 22:47 35.58150 -97.70426 5654 ft 233 kts 93°
2026-04-10 22:48 35.58139 -97.68447 5280 ft 230 kts 93°
2026-04-10 22:48 35.58132 -97.66492 4862 ft 227 kts 93°
2026-04-10 22:48 35.58127 -97.64558 4297 ft 227 kts 93°
2026-04-10 22:48 35.58058 -97.62628 3750 ft 224 kts 105°
2026-04-10 22:49 35.57327 -97.61028 3401 ft 208 kts 142°
2026-04-10 22:49 35.56191 -97.60120 3294 ft 190 kts 152°
2026-04-10 22:49 35.55066 -97.59355 3062 ft 184 kts 154°
2026-04-10 22:49 35.53844 -97.58946 3028 ft 184 kts 178°
2026-04-10 22:50 35.52570 -97.58921 3012 ft 182 kts 179°
2026-04-10 22:50 35.51306 -97.58906 3001 ft 181 kts 180°
2026-04-10 22:50 35.50026 -97.58895 2786 ft 185 kts 179°
2026-04-10 22:50 35.48764 -97.58895 2590 ft 179 kts 178°
2026-04-10 22:51 35.47526 -97.58909 2447 ft 177 kts 176°
2026-04-10 22:51 35.46285 -97.58915 2249 ft 180 kts 175°
2026-04-10 22:51 35.45056 -97.58896 1998 ft 170 kts 177°
2026-04-10 22:51 35.43962 -97.58883 1878 ft 149 kts 179°
2026-04-10 22:52 35.42960 -97.58889 1707 ft 140 kts 180°
2026-04-10 22:52 35.42030 -97.58896 1507 ft 128 kts 179°
2026-04-10 22:52 35.41134 -97.58891 1400 ft 128 kts 179°
2026-04-10 22:52 35.40281 -97.58893 1296 ft 117 kts 180°
2026-04-10 22:53 35.39663 -97.58896 1290 ft 58 kts 180°
2026-04-10 22:53 35.39351 -97.58898 1291 ft 24 kts 181°
2026-04-10 22:53 35.39218 -97.58963 1291 ft 20 kts 257°
2026-04-10 22:53 35.39216 -97.59007 1290 ft 0 kts 269°
2026-04-10 22:55 35.39216 -97.59008 1290 ft 0 kts 269°
2026-04-10 22:55 35.39215 -97.59052 1290 ft 12 kts 270°
2026-04-10 22:55 35.39215 -97.59184 1292 ft 16 kts 271°
2026-04-10 22:55 35.39291 -97.59222 1293 ft 13 kts
2026-04-10 22:56 35.39372 -97.59256 1294 ft 14 kts 302°
2026-04-10 22:56 35.39383 -97.59386 1296 ft 17 kts 269°
2026-04-10 22:56 35.39383 -97.59531 1297 ft 17 kts 270°
2026-04-10 22:56 35.39391 -97.59683 1296 ft 18 kts 281°
2026-04-10 22:57 35.39429 -97.59791 1296 ft 11 kts 324°
2026-04-10 22:57 35.39473 -97.59801 1296 ft 2 kts 359°
2026-04-10 22:57 35.39481 -97.59801 1296 ft 0 kts 359°